Home > Weather > U.S.A. > Chesapeake > Past weeks

Flag for U.S.A. Weather past 2 weeks in Chesapeake, Virginia, U.S.A.

57 °F


Feels Like: 57 °F
Forecast: 56 / 72 °F
Wind: 3 mph from Southwest

Location: Chesapeake Municipal Airport

Current Time: Dec 1, 2015 at 11:25:07 PM

Latest Report: Dec 1, 2015 at 10:35 PM

Visibility: 0 mi

Pressure: 30.05 "Hg

Humidity: 88%

Dew point: 54 °F

Location of ChesapeakeLocation

Historic Weather in Chesapeake — Graph


Chesapeake temperature yesterday

Maximum temperature yesterday: 55 °F (at 10:55 AM)
Minimum temperature yesterday: 52 °F (at 1:55 AM)
Average temperature yesterday: 53 °F

Past Weeks' High & Low Weather Summary

High75 °F (Nov 27, 1:15 PM)88% (Nov 20, 12:55 AM)30.75 "Hg (Nov 20, 12:55 AM)
Low27 °F (Nov 24, 3:15 AM)15% (Nov 24, 3:15 PM)29.92 "Hg (Nov 22, 3:15 AM)
Average54 °F66%30.27 "Hg
* Reported Nov 16 9:15 PM — Dec 1 9:55 PM, Chesapeake, Weather by CustomWeather, © 2015

Note: Actual official high and low records may vary slightly from our data, if they occured in-between our weather recording intervals... More about our weather records


Chesapeake weather history for previous 24 hours

Time TempWeatherWind HumidityBarometerVisibility
9:55 PM
Tue, Dec 1
57 °FLow clouds.3 mph88%30.04 "Hg1 mi
9:35 PM57 °FLow clouds.5 mph88%30.05 "Hg1 mi
9:15 PM57 °FLow clouds.3 mph88%30.04 "Hg1 mi
8:55 PM57 °FLow clouds.No wind88%30.05 "Hg1 mi
8:35 PM57 °FLow clouds.No wind88%30.05 "Hg4 mi
8:15 PM57 °FLow clouds.No wind88%30.05 "Hg5 mi
7:55 PM57 °FLow clouds.No wind88%30.05 "Hg5 mi
7:35 PM57 °FLow clouds.No wind88%30.06 "Hg7 mi
7:15 PM57 °FLow clouds.No wind88%30.07 "Hg7 mi
6:15 PM57 °FLow clouds.No wind88%30.08 "Hg10 mi
5:55 PM57 °FLow clouds.3 mph88%30.08 "Hg7 mi
5:15 PM57 °FLow clouds.3 mph88%30.08 "Hg10 mi
4:55 PM57 °FPassing clouds.No wind82%30.07 "Hg10 mi
4:35 PM57 °FScattered clouds.No wind82%30.07 "Hg10 mi
4:15 PM57 °FSunny.No wind82%30.06 "Hg10 mi
3:55 PM57 °FPartly sunny.3 mph82%30.07 "Hg10 mi
3:15 PM59 °FLow clouds.No wind77%30.08 "Hg10 mi
2:55 PM59 °FLow clouds.No wind77%30.08 "Hg10 mi
2:15 PM59 °FLow clouds.No wind77%30.10 "Hg10 mi
1:55 PM59 °FLow clouds.3 mph77%30.11 "Hg10 mi
1:15 PM59 °FLow clouds.5 mph82%30.11 "Hg10 mi
12:55 PM59 °FLow clouds.5 mph82%30.12 "Hg10 mi
12:35 PM59 °FMostly cloudy.5 mph77%30.11 "Hg10 mi
12:15 PM59 °FMostly cloudy.5 mph77%30.12 "Hg10 mi
11:55 AM59 °FMostly cloudy.3 mph77%30.13 "Hg10 mi
11:15 AM57 °FLow clouds.3 mph82%30.14 "Hg10 mi
10:55 AM55 °FLow clouds.No wind88%30.14 "Hg10 mi
10:15 AM54 °FLow clouds.No wind82%30.15 "Hg10 mi
9:55 AM54 °FLow clouds.No wind82%30.15 "Hg7 mi
9:15 AM54 °FLow clouds.No wind82%30.16 "Hg10 mi
8:55 AM54 °FLow clouds.3 mph82%30.16 "Hg10 mi
8:15 AM52 °FMostly cloudy.No wind82%30.14 "Hg10 mi
7:55 AM52 °FCloudy.No wind82%30.15 "Hg7 mi
7:35 AM52 °FDrizzle. Cloudy.No wind82%30.15 "Hg7 mi
7:15 AM52 °FRain. More clouds than sun.No wind82%30.15 "Hg5 mi
6:55 AM52 °FDrizzle. Low clouds.No wind82%30.15 "Hg7 mi
6:15 AM52 °FRain. Mostly cloudy.3 mph82%30.15 "Hg7 mi
5:55 AM52 °FLight rain. Mostly cloudy.No wind82%30.14 "Hg10 mi
5:15 AM52 °FLight rain. Low clouds.No wind82%30.14 "Hg7 mi
4:55 AM52 °FLight rain. Low clouds.3 mph82%30.14 "Hg5 mi
4:15 AM52 °FFog.No wind82%30.14 "Hg3 mi
3:55 AM52 °FRain. Low clouds.No wind82%30.14 "Hg2 mi
1:55 AM52 °FLow clouds.3 mph82%30.15 "Hg1 mi
1:15 AM52 °FLow clouds.3 mph82%30.15 "Hg1 mi
12:55 AM52 °FFog.No wind88%30.15 "Hg2 mi
11:55 PM
Mon, Nov 30
54 °FLow clouds.3 mph82%30.15 "Hg1 mi
11:15 PM54 °FFog.3 mph82%30.16 "Hg2 mi
Weather by CustomWeather, © 2015

See weather overviewHow to use our weather pages